Weather History for Aswan, Egypt

Change the Weather History Date:

Thursday, November 1, 2012

  Actual Average Record
Temperature  
Mean Temperature 84 °F -  
Max Temperature 100 °F 82 °F 100 °F (2003)
Min Temperature 69 °F 60 °F 57 °F (2005)
Cooling Degree Days 20    
Growing Degree Days 34 (Base 50)    
Moisture  
Dew Point 47 °F    
Average Humidity 26    
Maximum Humidity 35    
Minimum Humidity 13    
Precipitation  
Precipitation 0.00 in 0.00 in - ()
Sea Level Pressure  
Sea Level Pressure 29.90 in    
Wind  
Wind Speed 5 mph ()    
Max Wind Speed 10 mph    
Max Gust Speed -    
Visibility 6.0 miles    
Events      
Averages and records for this station are not official NWS values.
T = Trace of Precipitation, MM = Missing Value Source: Averaged Metar Reports

Daily Weather History Graph

Daily Weather History Graph

Search for Another Location

Airport:

Trip Planner

Search our weather history database for the weather conditions in past years. The results will help you decide how hot, cold, wet, or windy it might be!

Date:

Astronomy

Nov. 01, 2012 Rise Set
Actual Time 5:54 AM EET 5:09 PM EET
Civil Twilight 5:31 AM EET 5:32 PM EET
Nautical Twilight 5:04 AM EET 5:59 PM EET
Astronomical Twilight 4:38 AM EET 6:26 PM EET
Moon 7:03 PM EET (11/1) 7:57 AM EET (11/1)
Length of Visible Light 12h 01m
Length of Day
11h 14m
Waning Gibbous, 94% of the Moon is Illuminated
Nov 1
Waning Gibbous
Nov 7
Last Quarter
Nov 14
New
Nov 20
First Quarter
Nov 28
Full

Hourly Weather History & Observations

Time (EET) Temp. Heat Index Dew Point Humidity Pressure Visibility Wind Dir Wind Speed Gust Speed Precip Events Conditions
12:00 AM 77.0 °F - 39.2 °F 26% 29.89 in - North 5.8 mph - N/A   Clear
1:00 AM 77.0 °F - 39.2 °F 26% 29.86 in - North 5.8 mph - N/A   Clear
2:00 AM 73 °F - 40 °F 20% 29.88 in 6 mi North 4.6 mph - -  
5:00 AM 71.6 °F - 35.6 °F 27% 29.89 in - North 4.6 mph - N/A   Clear
6:00 AM 69.8 °F - 39.2 °F 33% 29.92 in - NNE 4.6 mph - N/A   Clear
7:00 AM 71.6 °F - 42.8 °F 35% 29.92 in - NNE 10.4 mph - N/A   Clear
8:00 AM 76 °F - 42 °F 19% 29.93 in 6 mi North 4.6 mph - -  
8:00 AM 75.2 °F - 42.8 °F 31% 29.95 in - North 4.6 mph - N/A   Clear
9:00 AM 82.4 °F - 42.8 °F 25% 29.95 in - North 4.6 mph - N/A   Clear
10:00 AM 86.0 °F 84.5 °F 55.4 °F 35% 29.98 in - North 4.6 mph - N/A   Clear
11:00 AM 89.6 °F 88.1 °F 57.2 °F 33% 29.95 in - North 8.1 mph - N/A   Clear
12:00 PM 91.4 °F 89.9 °F 57.2 °F 31% 29.92 in - NNE 6.9 mph - N/A   Clear
1:00 PM 95.0 °F 93.0 °F 55.4 °F 26% 29.89 in - NNE 3.5 mph - N/A   Clear
2:00 PM 98 °F - 51 °F 13% 29.82 in 6 mi South 5.8 mph - -  
3:00 PM 100.4 °F - 46.4 °F 16% 29.86 in - Calm Calm - N/A   Clear
4:00 PM 100.4 °F - 46.4 °F 16% 29.83 in - SSW 5.8 mph - N/A   Clear
8:00 PM 87 °F - 49 °F 17% 29.86 in 6 mi North 4.6 mph - -  
8:00 PM 86.0 °F - 48.2 °F 27% 29.89 in - North 4.6 mph - N/A   Clear
9:00 PM 86.0 °F - 48.2 °F 27% 29.89 in - North 6.9 mph - N/A   Clear
10:00 PM 84.2 °F - 50.0 °F 30% 29.89 in - NNE 5.8 mph - N/A   Clear
11:00 PM 82.4 °F - 50.0 °F 32% 29.89 in - NNE 6.9 mph - N/A   Clear